Погода в Михайловском

Россия / Тульская область     53°33′24″N   38°28′13″E
темп.,
°C
ветер,
м/с
пор.,
м/с
влажн.,
%
обл.,
%
осадки,
мм/ч
давл.,
гПа
погр.,
м
20 апреля, вт
вт2000:00+6в61191100 0.2 1019582
03:00+5в61186100 0.2 1018478
06:00+5в61289100 0.0 1018555
09:00+5в71194100 0.0 1017611
12:00+4всв61196100 0.1 1017647
15:00+4всв61196100 1.1 1015685
18:00+4в71293100 0.1 1012653
21:00+3всв71295100 1.2 1009557
21 апреля, ср
ср2100:00+1св61299100 4.8 1005412
03:00+1с4899100 8.4 1002236
06:00+1сз34100100 5.0 1002123
09:00+2зюз47100100 6.1 1005304
12:00+3зюз5996100 0.0 1007610
15:00+5зюз5986100 0.1 1009920
18:00+5юз4889100 0.1 1011409
21:00+4ююз359293 0.1 1013106
22 апреля, чт
чт2200:00+4юз3696100 0.2 1014325
03:00+4юз3698100 0.6 1015370
06:00+3ююз379699 0.0 1016195
09:00+6ююз478799 0.0 1018432
12:00+10юз676387 0.3 10181329
15:00+11ю36705 1.2 1018766
18:00+10ююз597796 0.3 1017457
21:00+8ю368959 0.3 1018118
23 апреля, пт
пт2300:00+7ю4119341 0.0 1018228
03:00+6ю410915 0.0 1018192
06:00+6ю4119183 0.1 1018217
09:00+12ююз611715 0.1 1018511
12:00+16ю8105025 0.1 10172100
15:00+15ю71050100 0.1 10151198
18:00+14ююв611616 0.0 1014654
21:00+11ююв6137599 0.1 1014343
24 апреля, сб
сб2400:00+9ю4108486 0.1 1013236
03:00+7ююв4119178 0.3 1011265
06:00+5зсз4691100 0.4 1012324
09:00+3зсз3696100 4.3 1013539
12:00+5зсз4691100 3.2 1013545
15:00+8зсз4565100 3.9 10121120
18:00+8зсз356443 0.6 1012737
21:00+5юз22697 0.7 101319